CZ-4C DEB

Satellite information

Favourite Embed

Satellite Type and Status

DEBRISIN ORBIT

Key statistics

Satellite CZ-4C DEB at a glance.

Uptime

2762

Days in orbit

Revolutions

≈ 14.8

Per day

Orbit

SSO

Sun Synchronous Orbit

Inclination

97.8

Latest

Satellite identification and parameters

Extended collection of information and parameters for CZ-4C DEB.

Object identification

Identified? True

Debris? True

Object name: CZ-4C DEB

International designator: 2018-031J

Object number (NORAD): 43270

Object ID (CCSDS): 43270

Country: PEOPLES REPUBLIC OF CHINA (PRC)

Current information (Y/N): Y

RCS size: SMALL

Orbital parameters

Period: 97.289 minutes

Inclination: 97.7556 deg

SMA: 7007.047 km

Apoapsis: 632.448 km

Periapsis: 625.375 km

RAAN: 350.4394 deg

Eccentricy: 0.00050476

Argument of periapsis: 10.3346 deg

Mean anomaly: 349.7969 deg

Mean motion: 14.80131344 rev/day

Mean motion (dot): 0.00001428 rev/day2

B* drag term: 0.00019477736 1/REarth

Two-line elements (TLE)

Creation date: Oct. 19, 2025, 2:20 a.m.

Reference frame: TEME

Reference center: EARTH

Epoch: Oct. 18, 2025, 9:35 p.m. UTC

TLE line 0: 0 CZ-4C DEB

TLE line 1: 1 43270U 18031J 25291.89990278 .00001428 00000-0 19478-3 0 9997

TLE line 2: 2 43270 97.7556 350.4394 0005048 10.3346 349.7969 14.80131344417243

Live tracking on map

Real-time ground track for satellite CZ-4C DEB.

In-orbit conjunctions

A list of the most updated potential collisions computed for object CZ-4C DEB.

Target Orbit TCA Probability of collision Miss distance Type
SL-16 R/B SSO 2025-07-11 09:32:22 0.001037865 265.0 (m) ROCKET BODY
SL-14 R/B LEO 2025-03-26 07:48:49 0.0003672571 660.0 (m) ROCKET BODY
IRIDIUM 33 DEB LEO 2024-09-12 14:33:31 0.0001115244 200.0 (m) DEBRIS

Associated space launch

Gaofen is a series of Chinese civilian Earth observation satellites. These three satellites are to be operated together with the Gaofen-1 satellite, which was launched in 2013.

CZ-4C DEB was lifted into orbit during the mission ‘Long March 4C | Gaofen 1-02, 1-03 & 1-04’, on board a Long March 4C space rocket.

The launch took place on March 31, 2018, 3:22 a.m. from Launch Complex 9.

For more information about the launch, click the button.

Launch to space Long March 4C | Gaofen 1-02, 1-03 & 1-04
Long March 4C | Gaofen 1-02, 1-03 & 1-04

Agency: N/A

Status: Launch Successful

Launch date: March 31, 2018, 3:22 a.m. UTC

Rocket: Long March 4C

Launch pad: Launch Complex 9

Location: Taiyuan Satellite Launch Center, People's Republic of China

...

Latest news about this satellite

There are no fresh news available about this satellite. Check back as we update our databases every day.


Newsletter sign-up

Weekly statistics, charts and insights to help you stay on top of the space industry.